Tracking 19176 objects as of 28-May-2018
HD Live streaming from Space Station
objects crossing your sky now

FENGYUN 1C DEB

Track FENGYUN 1C DEB now!
10-day predictions


NORAD ID: 30387
Int'l Code: 1999-025ADA
Perigee: 856.8 km
Apogee: 859.3 km
Inclination: 98.9 °
Period: 101.9 minutes
Semi major axis: 7229 km
RCS: 0.024 m2 (small)
Launch date: May 10, 1999
Source: People's Republic of China (PRC)
Launch site: Taiyaun Space Center, China (TSC)

Note: This is SATELLITE DEBRIS
aabbcc
Your satellite tracking list
Your tracking list is empty




NASA's NSSDC Master Catalog

Two Line Element Set (TLE):
1 30387U 99025ADA 18147.05294137 +.00000098 +00000-0 +77305-4 0  9991
2 30387 098.9267 176.0931 0001713 090.2571 323.3319 14.12473464583889
Source of the keplerian elements: AFSPC